Lid_Strength_Index
1 1 1 1 1 1 1 1 1 1 1 1 1 1 1 1 0 0 0 1 1 1 1 1 1 0 1 1 1 1 1 2 4 2 1 0 0 1 0 -0 -0 -1 0
1 1 1 1 1 1 1 1 1 1 1 1 1 1 1 1 0 1 1 1 1 1 1 1 1 1 1 1 1 1 1 0 2 3 1 1 1 0 0 1 -0 -1 -1
1 1 1 2 1 1 1 1 1 1 1 1 0 1 1 0 0 0 0 1 1 1 1 1 1 1 1 1 0 1 1 1 1 2 3 1 1 0 1 0 1 0 -0
1 1 2 2 2 2 1 1 1 0 1 0 0 0 0 0 0 0 0 0 0 0 0 0 0 0 0 0 1 1 1 1 1 2 2 2 1 0 1 2 2 1 1
1 1 1 2 1 1 1 0 1 1 1 0 0 0 0 0 0 0 0 0 0 0 -0 -0 -1 -0 1 1 0 -0 0 1 2 2 2 2 2 2 3 1 3 1 1
1 1 1 2 2 1 1 1 1 1 0 0 0 1 0 1 5 4 1 0 0 0 1 0 -0 0 0 2 2 3 1 1 2 2 2 3 2 2 1 2 3 3 4
1 1 1 2 2 2 1 1 1 1 1 1 1 0 1 0 5 5 3 0 0 0 -0 -0 0 0 -0 -0 2 3 4 5 4 1 2 2 2 1 1 2 3 3 3
2 1 1 1 2 2 2 1 1 1 1 1 1 1 1 1 6 5 3 -0 0 0 -0 -0 -0 -0 -0 0 -0 0 0 -0 -0 0 1 1 1 0 0 1 1 2 1
3 2 1 1 2 2 2 2 2 1 1 1 1 1 1 1 8 7 3 0 1 0 -0 -0 -0 -0 4 6 0 1 1 1 1 4 5 10 11 10 6 1 3 3 4
2 2 1 1 1 2 2 2 1 1 1 1 1 1 2 1 8 7 2 0 1 1 0 -0 4 1 5 6 0 1 2 1 0 0 0 3 6 2 8 0 1 3 3
4 2 2 1 1 1 1 2 2 1 1 1 1 1 1 1 4 8 7 0 1 1 1 1 0 6 7 8 8 1 2 1 2 1 1 1 1 0 0 0 0 1 3
6 5 3 3 2 1 1 2 2 2 2 3 2 2 1 1 5 8 8 7 2 1 1 0 0 7 7 8 6 5 9 7 1 1 2 2 2 1 1 0 -0 -0 -0
7 5 6 3 1 1 2 2 2 2 3 3 3 3 2 1 1 7 8 8 8 2 0 3 7 7 8 7 8 9 11 1 1 2 2 2 1 1 -0 -0 -0 0 0
9 7 7 7 3 2 2 2 2 3 3 3 3 3 2 2 1 1 1 3 7 4 4 2 3 4 7 5 3 2 1 1 1 2 2 1 1 1 1 1 1 1 1
10 8 8 7 5 3 2 2 2 1 2 2 2 2 2 2 2 2 2 1 1 2 2 1 1 1 1 1 1 1 1 1 1 1 2 2 2 1 2 1 1 1 2
10 10 8 7 7 5 4 3 5 5 7 8 8 4 1 4 5 7 7 8 10 9 2 2 2 1 2 1 2 1 1 2 1 1 2 2 2 2 2 1 1 2 3
9 9 9 7 6 6 5 5 4 3 6 7 9 8 8 8 9 8 7 9 11 8 2 2 2 1 1 1 1 1 1 1 0 1 2 2 2 2 2 2 2 2 2
8 9 7 7 6 5 5 5 5 4 3 2 7 7 8 8 9 9 10 8 3 4 2 2 2 1 1 1 1 1 1 1 1 2 2 2 2 2 2 3 2 2 2
8 8 7 7 6 6 6 6 5 5 4 3 2 5 7 10 10 10 10 1 2 2 2 2 1 1 1 1 1 1 1 1 1 2 2 2 1 2 2 2 2 6 4
7 9 8 7 7 7 7 7 6 6 6 4 2 2 1 3 3 2 2 1 1 2 2 1 1 1 1 1 1 1 1 1 2 2 2 1 1 2 2 2 2 2 2
6 6 8 6 6 6 6 6 7 6 5 4 3 2 5 2 2 2 2 1 1 1 1 1 1 1 1 1 1 1 1 2 2 2 1 2 2 2 2 2 2 2 2
5 6 5 5 4 4 5 5 6 6 5 4 3 2 9 1 2 1 1 1 1 1 0 1 1 1 1 1 1 1 1 2 2 1 1 2 2 2 2 2 2 2 2
3 4 4 4 4 6 4 3 3 4 4 4 3 2 2 2 2 2 1 1 1 1 0 0 0 1 0 0 0 0 1 2 1 1 1 2 1 2 2 2 2 2 2
4 3 3 4 3 3 3 3 3 4 3 2 2 2 2 2 1 1 1 1 1 1 0 0 0 1 0 0 0 0 0 0 0 0 1 1 2 2 2 2 2 2 2
8 4 3 3 3 3 3 3 2 2 2 2 3 2 2 2 1 1 1 1 1 1 1 0 0 0 0 0 1 0 3 12 2 4 0 1 1 1 1 2 2 2 2
12 11 9 6 4 3 3 3 3 2 2 2 2 1 2 2 1 1 1 1 1 1 1 1 0 0 0 0 0 5 13 14 8 9 1 1 1 1 1 2 2 2 2